Lancaster, PA

9:58 PM EDT on September 21, 2017 (GMT -0400)
Lancaster

Weather History for KLNS - January, 2003

Change the Weather History Date:

Thursday, January 16, 2003

  Actual Average Record
Temperature  
Mean Temperature 18 °F -  
Max Temperature 25 °F 38 °F 53 °F (1987)
Min Temperature 10 °F 20 °F -2 °F (1977)
Degree Days  
Heating Degree Days 48    
Moisture  
Dew Point 10 °F    
Average Humidity 66    
Maximum Humidity 93    
Minimum Humidity 43    
Precipitation  
Precipitation 0.04 in - - ()
Sea Level Pressure  
Sea Level Pressure 30.17 in    
Wind  
Wind Speed 9 mph (SW)    
Max Wind Speed 14 mph    
Max Gust Speed -    
Visibility 8 miles    
Events Snow    
Averages and records for this station are not official NWS values.
T = Trace of Precipitation, MM = Missing Value Source: NWS Daily Summary

Daily Weather History Graph

Daily Weather History Graph

Search for Another Location

Airport or City:

Trip Planner

Search our weather history database for the weather conditions in past years. The results will help you decide how hot, cold, wet, or windy it might be!

Date:

Astronomy

Jan. 16, 2003 Rise Set
Actual Time 7:25 AM EST 5:04 PM EST
Civil Twilight 6:55 AM EST 5:34 PM EST
Nautical Twilight 6:22 AM EST 6:08 PM EST
Astronomical Twilight 5:49 AM EST 6:40 PM EST
Moon 3:16 PM EST (1/16) 6:04 AM EST (1/16)
Length of Visible Light 10h 39m
Length of Day
9h 39m
Waxing Gibbous, 97% of the Moon is Illuminated
Jan 16
Waxing Gibbous
Jan 18
Full
Jan 25
Last Quarter
Feb 1
New
Feb 9
First Quarter

Hourly Weather History & Observations

Time (EST) Temp. Windchill Dew Point Humidity Pressure Visibility Wind Dir Wind Speed Gust Speed Precip Events Conditions
12:53 AM 17.1 °F 3.6 °F 3.9 °F 56% 30.27 in 10.0 mi West 12.7 mph - N/A   Clear
1:53 AM 15.1 °F 2.5 °F 3.9 °F 61% 30.28 in 10.0 mi West 10.4 mph - N/A   Clear
2:53 AM 15.1 °F 2.5 °F 6.1 °F 68% 30.29 in 10.0 mi West 10.4 mph - N/A   Clear
3:53 AM 15.1 °F 6.4 °F 3.9 °F 61% 30.30 in 10.0 mi SW 5.8 mph - N/A   Clear
4:53 AM 14.0 °F 5.1 °F 3.9 °F 64% 30.31 in 10.0 mi West 5.8 mph - N/A   Clear
5:53 AM 12.9 °F 1.6 °F 5.0 °F 71% 30.32 in 10.0 mi SW 8.1 mph - N/A   Clear
6:53 AM 10.9 °F 0.2 °F 3.0 °F 70% 30.34 in 10.0 mi West 6.9 mph - N/A   Clear
7:53 AM 12.9 °F 2.6 °F 7.0 °F 77% 30.35 in 10.0 mi West 6.9 mph - N/A   Clear
8:53 AM 18.0 °F 6.9 °F 7.0 °F 62% 30.34 in 10.0 mi WSW 9.2 mph - N/A   Clear
9:53 AM 19.9 °F 7.3 °F 7.0 °F 57% 30.34 in 10.0 mi West 12.7 mph - N/A   Clear
10:53 AM 21.0 °F 9.3 °F 6.1 °F 53% 30.32 in 10.0 mi West 11.5 mph - N/A   Clear
11:53 AM 23.0 °F 13.1 °F 7.0 °F 50% 30.29 in 10.0 mi West 9.2 mph - N/A   Clear
12:53 PM 23.0 °F 13.9 °F 7.0 °F 50% 30.24 in 10.0 mi West 8.1 mph - 0.00 in   Clear
1:53 PM 24.1 °F 15.2 °F 7.0 °F 48% 30.22 in 10.0 mi WSW 8.1 mph - N/A   Clear
2:53 PM 25.0 °F 15.5 °F 7.0 °F 46% 30.19 in 10.0 mi SW 9.2 mph - N/A   Clear
3:53 PM 24.1 °F 17.0 °F 6.1 °F 46% 30.16 in 10.0 mi WSW 5.8 mph - N/A   Scattered Clouds
4:53 PM 25.0 °F 18.1 °F 7.0 °F 46% 30.12 in 10.0 mi SSW 5.8 mph - N/A   Overcast
5:53 PM 25.0 °F 19.3 °F 5.0 °F 43% 30.10 in 10.0 mi South 4.6 mph - N/A   Overcast
6:53 PM 25.0 °F 20.7 °F 7.0 °F 46% 30.08 in 10.0 mi SSE 3.5 mph - N/A   Overcast
7:53 PM 25.0 °F 17.1 °F 9.0 °F 51% 30.07 in 10.0 mi South 6.9 mph - N/A   Overcast
8:53 PM 24.1 °F 12.0 °F 14.0 °F 65% 30.06 in 9.0 mi South 13.8 mph - 0.00 in Snow Light Snow
9:12 PM 23.0 °F 11.7 °F 17.6 °F 80% 30.03 in 5.0 mi South 11.5 mph - 0.00 in Snow Light Snow
9:36 PM 23.0 °F 13.1 °F 17.6 °F 80% 30.03 in 3.0 mi South 9.2 mph - 0.00 in Snow Light Snow
9:45 PM 21.2 °F 12.6 °F 19.4 °F 93% 30.02 in 2.0 mi South 6.9 mph - 0.00 in Snow Light Snow
9:53 PM 21.9 °F 13.4 °F 19.0 °F 89% 30.03 in 2.0 mi South 6.9 mph - 0.00 in Snow Light Snow
10:04 PM 21.2 °F 13.6 °F 19.4 °F 93% 30.01 in 1.5 mi SSE 5.8 mph - 0.01 in Snow Light Snow
10:23 PM 21.2 °F 13.6 °F 19.4 °F 93% 29.99 in 1.5 mi SSE 5.8 mph - 0.02 in Snow Light Snow
10:53 PM 21.9 °F - 19.9 °F 92% 30.00 in 1.5 mi Calm Calm - 0.03 in Snow Light Snow
11:15 PM 21.2 °F - 19.4 °F 93% 29.98 in 2.0 mi Calm Calm - 0.00 in Snow Light Snow
11:53 PM 21.9 °F 15.7 °F 19.0 °F 89% 29.97 in 1.8 mi WSW 4.6 mph - 0.01 in Snow Light Snow